"read_dt","SO2 (ppb)","flags","PMT voltage (V)","lamp voltage (V)","lamp intensity (Hz)","internal temp (C)","react chamber temp (C)","sample flow (l/min)","pres (mmHg)","SO2 bkg (ppb)","SO2 coefficient"
2016-07-04 00:00:00,2100E-3,5C000400,-0724,0827,12168,029.4,045.5,0.253,753.5,01.17,0.508
2016-07-04 00:01:00,2133E-3,5C000400,-0724,0827,11932,029.4,045.5,0.252,753.5,01.17,0.508
2016-07-04 00:02:00,2044E-3,5C000400,-0724,0828,12140,029.4,045.5,0.252,753.5,01.17,0.508
2016-07-04 00:03:00,2133E-3,5C000400,-0724,0827,12240,029.4,045.5,0.253,753.5,01.17,0.508
2016-07-04 00:04:00,2213E-3,5C000400,-0724,0827,12008,029.4,045.5,0.252,753.4,01.17,0.508
2016-07-04 00:05:00,2046E-3,5C000400,-0724,0827,12133,029.4,045.5,0.252,753.5,01.17,0.508
2016-07-04 00:06:00,2086E-3,5C000400,-0724,0827,12286,029.3,045.5,0.253,753.5,01.17,0.508
2016-07-04 00:07:00,2064E-3,5C000400,-0724,0828,12223,029.4,045.5,0.252,753.5,01.17,0.508
2016-07-04 00:08:00,2121E-3,5C000400,-0724,0827,12155,029.3,045.5,0.252,753.5,01.17,0.508
2016-07-04 00:09:00,2102E-3,5C000400,-0724,0828,12220,029.3,045.5,0.252,753.5,01.17,0.508
2016-07-04 00:10:00,2080E-3,5C000400,-0724,0827,12321,029.3,045.5,0.253,753.5,01.17,0.508
2016-07-04 00:11:00,2027E-3,5C000400,-0724,0827,12134,029.3,045.5,0.252,753.5,01.17,0.508
2016-07-04 00:12:00,2084E-3,5C000400,-0724,0827,12185,029.3,045.5,0.252,753.5,01.17,0.508
2016-07-04 00:13:00,2053E-3,5C000400,-0724,0827,12140,029.3,045.5,0.253,753.5,01.17,0.508
2016-07-04 00:14:00,1992E-3,5C000400,-0724,0827,12050,029.3,045.5,0.252,753.5,01.17,0.508
2016-07-04 00:15:00,2052E-3,5C000400,-0724,0827,12286,029.3,045.5,0.252,753.5,01.17,0.508
2016-07-04 00:16:00,2140E-3,5C000400,-0724,0828,12203,029.3,045.5,0.253,753.5,01.17,0.508
2016-07-04 00:17:00,2164E-3,5C000400,-0724,0828,12245,029.3,045.5,0.253,753.5,01.17,0.508
2016-07-04 00:18:00,2042E-3,5C000400,-0724,0827,12187,029.3,045.5,0.252,753.5,01.17,0.508
2016-07-04 00:19:00,2106E-3,5C000400,-0724,0827,12038,029.3,045.5,0.252,753.5,01.17,0.508
2016-07-04 00:20:00,2028E-3,5C000400,-0724,0828,12186,029.3,045.5,0.253,753.5,01.17,0.508
2016-07-04 00:21:00,2050E-3,5C000400,-0724,0828,12200,029.3,045.5,0.252,753.5,01.17,0.508
2016-07-04 00:22:00,2125E-3,5C000400,-0724,0827,12256,029.3,045.5,0.252,753.5,01.17,0.508
2016-07-04 00:23:00,2084E-3,5C000400,-0724,0828,12202,029.3,045.5,0.253,753.5,01.17,0.508
2016-07-04 00:24:00,1915E-3,5C000400,-0724,0827,12140,029.3,045.5,0.252,753.5,01.17,0.508
2016-07-04 00:25:00,2106E-3,5C000400,-0724,0828,12156,029.3,045.5,0.252,753.5,01.17,0.508
2016-07-04 00:26:00,2114E-3,5C000400,-0724,0827,12306,029.3,045.5,0.253,753.5,01.17,0.508
2016-07-04 00:27:00,2059E-3,5C000400,-0724,0827,12073,029.3,045.5,0.253,753.5,01.17,0.508
2016-07-04 00:28:00,2140E-3,5C000400,-0724,0828,12134,029.3,045.5,0.252,753.5,01.17,0.508
2016-07-04 00:29:00,1909E-3,5C000400,-0724,0828,12309,029.3,045.5,0.252,753.5,01.17,0.508
2016-07-04 00:30:00,2118E-3,5C000400,-0724,0827,12308,029.3,045.5,0.253,753.5,01.17,0.508
2016-07-04 00:31:00,2227E-3,5C000400,-0724,0828,12228,029.3,045.5,0.253,753.5,01.17,0.508
2016-07-04 00:32:00,2002E-3,5C000400,-0724,0827,12143,029.2,045.5,0.252,753.5,01.17,0.508
2016-07-04 00:33:00,2186E-3,5C000400,-0724,0827,12167,029.3,045.5,0.253,753.5,01.17,0.508
2016-07-04 00:34:00,2103E-3,5C000400,-0724,0827,12185,029.3,045.5,0.253,753.5,01.17,0.508
2016-07-04 00:35:00,2109E-3,5C000400,-0724,0828,12283,029.2,045.5,0.252,753.5,01.17,0.508
2016-07-04 00:36:00,1953E-3,5C000400,-0724,0828,12393,029.3,045.5,0.252,753.5,01.17,0.508
2016-07-04 00:37:00,2014E-3,5C000400,-0724,0827,12156,029.2,045.5,0.253,753.5,01.17,0.508
2016-07-04 00:38:00,2233E-3,5C000400,-0724,0827,12071,029.2,045.5,0.253,753.5,01.17,0.508
2016-07-04 00:39:00,2101E-3,5C000400,-0724,0827,12261,029.2,045.5,0.252,753.5,01.17,0.508
2016-07-04 00:40:00,1996E-3,5C000400,-0724,0828,12287,029.2,045.5,0.253,753.5,01.17,0.508
2016-07-04 00:41:00,2045E-3,5C000400,-0724,0828,12321,029.2,045.5,0.253,753.5,01.17,0.508
2016-07-04 00:42:00,2139E-3,5C000400,-0724,0828,12373,029.2,045.5,0.253,753.5,01.17,0.508
2016-07-04 00:43:00,2039E-3,5C000400,-0724,0827,12168,029.2,045.5,0.252,753.5,01.17,0.508
2016-07-04 00:44:00,2031E-3,5C000400,-0724,0828,12177,029.2,045.5,0.253,753.5,01.17,0.508
2016-07-04 00:45:00,2102E-3,5C000400,-0724,0828,12311,029.2,045.5,0.253,753.5,01.17,0.508
2016-07-04 00:46:00,2124E-3,5C000400,-0724,0827,12213,029.2,045.5,0.253,753.5,01.17,0.508
2016-07-04 00:47:00,2010E-3,5C000400,-0724,0827,12192,029.2,045.5,0.252,753.5,01.17,0.508
2016-07-04 00:48:00,1993E-3,5C000400,-0724,0826,12168,029.2,045.5,0.253,753.5,01.17,0.508
2016-07-04 00:49:00,2144E-3,5C000400,-0724,0827,12152,029.2,045.5,0.253,753.5,01.17,0.508
2016-07-04 00:50:00,2147E-3,5C000400,-0724,0827,12113,029.2,045.5,0.253,753.5,01.17,0.508
2016-07-04 00:51:00,2073E-3,5C000400,-0724,0827,12014,029.2,045.5,0.252,753.5,01.17,0.508
2016-07-04 00:52:00,2047E-3,5C000400,-0724,0827,12204,029.1,045.5,0.253,753.5,01.17,0.508
2016-07-04 00:53:00,2169E-3,5C000400,-0724,0828,12054,029.2,045.5,0.253,753.5,01.17,0.508
2016-07-04 00:54:00,2217E-3,5C000400,-0724,0828,12292,029.2,045.5,0.252,753.5,01.17,0.508
2016-07-04 00:55:00,2153E-3,5C000400,-0724,0828,12322,029.2,045.5,0.253,753.4,01.17,0.508
2016-07-04 00:56:00,2099E-3,5C000400,-0724,0827,12285,029.2,045.5,0.253,753.4,01.17,0.508
2016-07-04 00:57:00,1976E-3,5C000400,-0724,0828,12007,029.2,045.5,0.253,753.4,01.17,0.508
2016-07-04 00:58:00,2086E-3,5C000400,-0724,0827,12227,029.2,045.5,0.253,753.4,01.17,0.508
2016-07-04 00:59:00,2074E-3,5C000400,-0724,0827,12146,029.2,045.5,0.253,753.4,01.17,0.508
2016-07-04 01:00:00,2213E-3,5C000400,-0724,0827,11981,029.2,045.5,0.253,753.4,01.17,0.508
2016-07-04 01:01:00,2048E-3,5C000400,-0724,0827,12139,029.2,045.5,0.253,753.4,01.17,0.508
2016-07-04 01:02:00,2169E-3,5C000400,-0724,0827,12032,029.2,045.5,0.252,753.4,01.17,0.508
2016-07-04 01:03:00,2128E-3,5C000400,-0724,0827,12210,029.2,045.5,0.253,753.4,01.17,0.508
2016-07-04 01:04:00,2069E-3,5C000400,-0724,0828,12179,029.1,045.5,0.253,753.4,01.17,0.508
2016-07-04 01:05:00,2021E-3,5C000400,-0724,0827,12320,029.2,045.5,0.253,753.4,01.17,0.508
2016-07-04 01:06:00,2042E-3,5C000400,-0724,0828,12146,029.2,045.5,0.252,753.4,01.17,0.508
2016-07-04 01:07:00,2181E-3,5C000400,-0724,0828,12249,029.2,045.5,0.253,753.3,01.17,0.508
2016-07-04 01:08:00,2063E-3,5C000400,-0724,0827,12233,029.1,045.5,0.253,753.3,01.17,0.508
2016-07-04 01:09:00,2062E-3,5C000400,-0724,0828,12319,029.1,045.5,0.253,753.3,01.17,0.508
2016-07-04 01:10:00,2107E-3,5C000400,-0724,0828,12204,029.1,045.5,0.253,753.4,01.17,0.508
2016-07-04 01:11:00,2038E-3,5C000400,-0724,0827,12145,029.1,045.5,0.253,753.3,01.17,0.508
2016-07-04 01:12:00,2206E-3,5C000400,-0724,0828,12237,029.1,045.5,0.253,753.3,01.17,0.508
2016-07-04 01:13:00,2235E-3,5C000400,-0724,0827,12184,029.2,045.5,0.252,753.4,01.17,0.508
2016-07-04 01:14:00,2094E-3,5C000400,-0724,0828,12248,029.1,045.5,0.253,753.3,01.17,0.508
2016-07-04 01:15:00,1909E-3,5C000400,-0724,0828,12293,029.1,045.5,0.253,753.3,01.17,0.508
2016-07-04 01:16:00,2112E-3,5C000400,-0724,0827,12195,029.1,045.5,0.253,753.3,01.17,0.508
2016-07-04 01:17:00,2123E-3,5C000400,-0724,0827,11986,029.1,045.5,0.253,753.3,01.17,0.508
2016-07-04 01:18:00,2042E-3,5C000400,-0724,0827,12299,029.1,045.5,0.253,753.3,01.17,0.508
2016-07-04 01:19:00,1986E-3,5C000400,-0724,0828,12191,029.1,045.5,0.253,753.4,01.17,0.508
2016-07-04 01:20:00,2172E-3,5C000400,-0724,0827,12200,029.2,045.5,0.253,753.4,01.17,0.508
2016-07-04 01:21:00,2138E-3,5C000400,-0724,0828,12280,029.1,045.5,0.253,753.4,01.17,0.508
2016-07-04 01:22:00,2163E-3,5C000400,-0724,0828,12142,029.1,045.5,0.253,753.4,01.17,0.508
2016-07-04 01:23:00,2016E-3,5C000400,-0724,0828,12169,029.1,045.5,0.253,753.4,01.17,0.508
2016-07-04 01:24:00,2075E-3,5C000400,-0724,0828,12186,029.1,045.5,0.252,753.4,01.17,0.508
2016-07-04 01:25:00,2091E-3,5C000400,-0724,0827,12167,029.1,045.5,0.253,753.4,01.17,0.508
2016-07-04 01:26:00,2176E-3,5C000400,-0724,0827,12225,029.1,045.5,0.253,753.4,01.17,0.508
2016-07-04 01:27:00,2062E-3,5C000400,-0724,0827,12305,029.1,045.5,0.253,753.4,01.17,0.508
"read_dt","SO2 (ppb)","flags","PMT voltage (V)","lamp voltage (V)","lamp intensity (Hz)","internal temp (C)","react chamber temp (C)","sample flow (l/min)","pres (mmHg)","SO2 bkg (ppb)","SO2 coefficient"
2016-07-04 01:33:00,1517E-3,5C000400,-0724,0821,11930,029.4,044.5,0.254,753.9,01.17,0.508
2016-07-04 01:34:00,2145E-3,5C000400,-0724,0827,12289,029.5,044.8,0.254,753.8,01.17,0.508
2016-07-04 01:35:00,1970E-3,5C000400,-0724,0828,12346,029.6,045.3,0.253,753.4,01.17,0.508
2016-07-04 01:36:00,2022E-3,5C000400,-0724,0828,12225,029.7,045.6,0.253,753.7,01.17,0.508
2016-07-04 01:37:00,2048E-3,5C000400,-0724,0827,12165,029.9,045.6,0.252,753.5,01.17,0.508
2016-07-04 01:38:00,2044E-3,5C000400,-0724,0828,12340,030.0,045.5,0.252,753.6,01.17,0.508
2016-07-04 01:39:00,2019E-3,5C000400,-0724,0828,12176,030.1,045.5,0.252,753.5,01.17,0.508
2016-07-04 01:40:00,2141E-3,5C000400,-0724,0828,12146,030.3,045.5,0.252,753.5,01.17,0.508
2016-07-04 01:41:00,2077E-3,5C000400,-0724,0828,12107,030.4,045.5,0.251,753.5,01.17,0.508
2016-07-04 01:42:00,2007E-3,5C000400,-0724,0829,12221,030.5,045.5,0.251,753.4,01.17,0.508
2016-07-04 01:43:00,1973E-3,5C000400,-0724,0828,12169,030.6,045.5,0.251,753.5,01.17,0.508
2016-07-04 01:44:00,2051E-3,5C000400,-0724,0829,12279,030.8,045.5,0.251,753.4,01.17,0.508
2016-07-04 01:45:00,2066E-3,5C000400,-0724,0828,12113,030.9,045.5,0.251,753.4,01.17,0.508
2016-07-04 01:46:00,1931E-3,5C000400,-0724,0828,12204,030.9,045.5,0.250,753.4,01.17,0.508
2016-07-04 01:47:00,2173E-3,5C000400,-0723,0828,12103,030.9,045.5,0.251,753.4,01.17,0.508
2016-07-04 01:48:00,2033E-3,5C000400,-0723,0828,12278,030.9,045.5,0.251,753.4,01.17,0.508
2016-07-04 01:49:00,1940E-3,5C000400,-0723,0828,12289,030.8,045.5,0.250,753.4,01.17,0.508
2016-07-04 01:50:00,2006E-3,5C000400,-0723,0828,12180,030.7,045.5,0.250,753.4,01.17,0.508
2016-07-04 01:51:00,2093E-3,5C000400,-0724,0828,12215,030.6,045.5,0.250,753.4,01.17,0.508
2016-07-04 01:52:00,2134E-3,5C000400,-0723,0828,12140,030.6,045.5,0.250,753.4,01.17,0.508
2016-07-04 01:53:00,2085E-3,5C000400,-0723,0828,12212,030.5,045.5,0.250,753.4,01.17,0.508
2016-07-04 01:54:00,2125E-3,5C000400,-0724,0828,12205,030.5,045.5,0.250,753.5,01.17,0.508
2016-07-04 01:55:00,2182E-3,5C000400,-0723,0828,12127,030.4,045.5,0.250,753.4,01.17,0.508
2016-07-04 01:56:00,2124E-3,5C000400,-0724,0828,12240,030.3,045.5,0.250,753.4,01.17,0.508
2016-07-04 01:57:00,2184E-3,5C000400,-0724,0827,12126,030.3,045.5,0.250,753.4,01.17,0.508
2016-07-04 01:58:00,2008E-3,5C000400,-0724,0828,12119,030.3,045.5,0.251,753.5,01.17,0.508
2016-07-04 01:59:00,2075E-3,5C000400,-0724,0828,12193,030.2,045.5,0.250,753.4,01.17,0.508
2016-07-04 02:00:00,2096E-3,5C000400,-0724,0828,12341,030.2,045.5,0.250,753.5,01.17,0.508
2016-07-04 02:01:00,2172E-3,5C000400,-0724,0828,12174,030.1,045.5,0.250,753.5,01.17,0.508
2016-07-04 02:02:00,2184E-3,5C000400,-0724,0829,12266,030.0,045.5,0.251,753.5,01.17,0.508
2016-07-04 02:03:00,2226E-3,5C000400,-0724,0827,12152,030.0,045.5,0.251,753.5,01.17,0.508
2016-07-04 02:04:00,2106E-3,5C000400,-0724,0828,11982,030.0,045.5,0.251,753.5,01.17,0.508
2016-07-04 02:05:00,1977E-3,5C000400,-0724,0828,12221,030.0,045.5,0.251,753.5,01.17,0.508
2016-07-04 02:06:00,1881E-3,5C000400,-0724,0827,12220,029.9,045.5,0.251,753.5,01.17,0.508
2016-07-04 02:07:00,2172E-3,5C000400,-0724,0829,12225,029.9,045.5,0.251,753.5,01.17,0.508
2016-07-04 02:08:00,1996E-3,5C000400,-0724,0829,12287,029.8,045.5,0.251,753.5,01.17,0.508
2016-07-04 02:09:00,2041E-3,5C000400,-0724,0827,12125,029.8,045.5,0.251,753.5,01.17,0.508
2016-07-04 02:10:00,2263E-3,5C000400,-0724,0827,12089,029.8,045.5,0.251,753.5,01.17,0.508
2016-07-04 02:11:00,2081E-3,5C000400,-0724,0828,12291,029.7,045.5,0.251,753.5,01.17,0.508
2016-07-04 02:12:00,2052E-3,5C000400,-0724,0827,12241,029.7,045.5,0.251,753.5,01.17,0.508
2016-07-04 02:13:00,2091E-3,5C000400,-0724,0828,12297,029.7,045.5,0.252,753.5,01.17,0.508
2016-07-04 02:14:00,2115E-3,5C000400,-0724,0828,12396,029.7,045.5,0.251,753.5,01.17,0.508
2016-07-04 02:15:00,2032E-3,5C000400,-0724,0828,12197,029.6,045.5,0.251,753.5,01.17,0.508
2016-07-04 02:16:00,2138E-3,5C000400,-0724,0828,12226,029.6,045.5,0.251,753.5,01.17,0.508
2016-07-04 02:17:00,2198E-3,5C000400,-0724,0828,12268,029.6,045.5,0.252,753.5,01.17,0.508
2016-07-04 02:18:00,2067E-3,5C000400,-0724,0828,12316,029.6,045.5,0.252,753.5,01.17,0.508
2016-07-04 02:19:00,1946E-3,5C000400,-0724,0828,12214,029.5,045.5,0.252,753.5,01.17,0.508
2016-07-04 02:20:00,2121E-3,5C000400,-0724,0828,12270,029.5,045.5,0.252,753.5,01.17,0.508
2016-07-04 02:21:00,2180E-3,5C000400,-0724,0827,12172,029.5,045.5,0.252,753.5,01.17,0.508
2016-07-04 02:22:00,1939E-3,5C000400,-0724,0827,12127,029.5,045.5,0.251,753.5,01.17,0.508
2016-07-04 02:23:00,2142E-3,5C000400,-0724,0828,12115,029.5,045.5,0.252,753.5,01.17,0.508
2016-07-04 02:24:00,2186E-3,5C000400,-0724,0828,12033,029.5,045.5,0.252,753.5,01.17,0.508
2016-07-04 02:25:00,2276E-3,5C000400,-0724,0827,12275,029.5,045.5,0.252,753.5,01.17,0.508
2016-07-04 02:26:00,2028E-3,5C000400,-0724,0828,12285,029.4,045.5,0.252,753.5,01.17,0.508
2016-07-04 02:27:00,2118E-3,5C000400,-0724,0827,12152,029.4,045.5,0.252,753.5,01.17,0.508
2016-07-04 02:28:00,1984E-3,5C000400,-0724,0828,12238,029.4,045.5,0.252,753.5,01.17,0.508
2016-07-04 02:29:00,2170E-3,5C000400,-0724,0828,12282,029.4,045.5,0.252,753.5,01.17,0.508
2016-07-04 02:30:00,2203E-3,5C000400,-0724,0827,12164,029.3,045.5,0.252,753.5,01.17,0.508
2016-07-04 02:31:00,2141E-3,5C000400,-0724,0828,12231,029.4,045.5,0.253,753.5,01.17,0.508
2016-07-04 02:32:00,2114E-3,5C000400,-0724,0827,12234,029.3,045.5,0.252,753.6,01.17,0.508
2016-07-04 02:33:00,2243E-3,5C000400,-0724,0828,12098,029.3,045.5,0.252,753.5,01.17,0.508
2016-07-04 02:34:00,2164E-3,5C000400,-0724,0828,12399,029.3,045.5,0.252,753.5,01.17,0.508
2016-07-04 02:35:00,2140E-3,5C000400,-0724,0828,12185,029.3,045.5,0.252,753.5,01.17,0.508
2016-07-04 02:36:00,2186E-3,5C000400,-0724,0828,12201,029.3,045.5,0.252,753.5,01.17,0.508
2016-07-04 02:37:00,2017E-3,5C000400,-0724,0828,12242,029.3,045.5,0.252,753.6,01.17,0.508
2016-07-04 02:38:00,2151E-3,5C000400,-0724,0828,12212,029.3,045.5,0.253,753.5,01.17,0.508
2016-07-04 02:39:00,1971E-3,5C000400,-0724,0827,12274,029.3,045.5,0.252,753.6,01.17,0.508
2016-07-04 02:40:00,2083E-3,5C000400,-0724,0827,12122,029.3,045.5,0.252,753.6,01.17,0.508
2016-07-04 02:41:00,2102E-3,5C000400,-0724,0827,12170,029.3,045.5,0.252,753.6,01.17,0.508
2016-07-04 02:42:00,2031E-3,5C000400,-0724,0827,12072,029.3,045.5,0.252,753.6,01.17,0.508
2016-07-04 02:43:00,2019E-3,5C000400,-0724,0828,12275,029.3,045.5,0.253,753.6,01.17,0.508
2016-07-04 02:44:00,2133E-3,5C000400,-0724,0828,12251,029.3,045.5,0.253,753.6,01.17,0.508
2016-07-04 02:45:00,2079E-3,5C000400,-0724,0828,12257,029.3,045.5,0.252,753.6,01.17,0.508
2016-07-04 02:46:00,1973E-3,5C000400,-0724,0828,12237,029.2,045.5,0.252,753.6,01.17,0.508
2016-07-04 02:47:00,2155E-3,5C000400,-0724,0827,12137,029.2,045.5,0.252,753.6,01.17,0.508
2016-07-04 02:48:00,2068E-3,5C000400,-0724,0828,12253,029.3,045.5,0.253,753.6,01.17,0.508
2016-07-04 02:49:00,1951E-3,5C000400,-0724,0827,12183,029.2,045.5,0.253,753.6,01.17,0.508
2016-07-04 02:50:00,2114E-3,5C000400,-0724,0828,12288,029.2,045.5,0.253,753.5,01.17,0.508
2016-07-04 02:51:00,2120E-3,5C000400,-0724,0829,12168,029.3,045.5,0.252,753.6,01.17,0.508
2016-07-04 02:52:00,2150E-3,5C000400,-0724,0827,12230,029.2,045.5,0.252,753.6,01.17,0.508
2016-07-04 02:53:00,2094E-3,5C000400,-0724,0827,12338,029.2,045.5,0.252,753.6,01.17,0.508
2016-07-04 02:54:00,2182E-3,5C000400,-0724,0827,12325,029.2,045.5,0.253,753.6,01.17,0.508
2016-07-04 02:55:00,2196E-3,5C000400,-0724,0828,12133,029.2,045.5,0.253,753.6,01.17,0.508
2016-07-04 02:56:00,2050E-3,5C000400,-0724,0827,12150,029.2,045.5,0.253,753.6,01.17,0.508
2016-07-04 02:57:00,2056E-3,5C000400,-0724,0828,12301,029.1,045.5,0.253,753.6,01.17,0.508
2016-07-04 02:58:00,1969E-3,5C000400,-0724,0827,12117,029.1,045.5,0.253,753.6,01.17,0.508
2016-07-04 02:59:00,2151E-3,5C000400,-0724,0828,12106,029.1,045.5,0.252,753.6,01.17,0.508
2016-07-04 03:00:00,2051E-3,5C000400,-0724,0828,12357,029.1,045.5,0.252,753.6,01.17,0.508
2016-07-04 03:01:00,2129E-3,5C000400,-0724,0828,12293,029.1,045.5,0.253,753.6,01.17,0.508
2016-07-04 03:02:00,2098E-3,5C000400,-0724,0827,12179,029.1,045.5,0.253,753.6,01.17,0.508
2016-07-04 03:03:00,2048E-3,5C000400,-0724,0827,12141,029.1,045.5,0.253,753.6,01.17,0.508
2016-07-04 03:04:00,2042E-3,5C000400,-0724,0827,12185,029.1,045.5,0.252,753.6,01.17,0.508
2016-07-04 03:05:00,2163E-3,5C000400,-0724,0827,12255,029.1,045.5,0.253,753.6,01.17,0.508
2016-07-04 03:06:00,2051E-3,5C000400,-0724,0828,12242,029.1,045.5,0.253,753.6,01.17,0.508
2016-07-04 03:07:00,2142E-3,5C000400,-0724,0827,12183,029.1,045.5,0.253,753.6,01.17,0.508
2016-07-04 03:08:00,2034E-3,5C000400,-0724,0828,12220,029.1,045.5,0.253,753.5,01.17,0.508
2016-07-04 03:09:00,2008E-3,5C000400,-0724,0827,12276,029.1,045.5,0.253,753.5,01.17,0.508
2016-07-04 03:10:00,2201E-3,5C000400,-0724,0828,12292,029.1,045.5,0.252,753.5,01.17,0.508
2016-07-04 03:11:00,2134E-3,5C000400,-0724,0827,12126,029.1,045.5,0.253,753.5,01.17,0.508
2016-07-04 03:12:00,2026E-3,5C000400,-0724,0828,12210,029.1,045.5,0.253,753.5,01.17,0.508
2016-07-04 03:13:00,1986E-3,5C000400,-0724,0828,12258,029.1,045.5,0.253,753.5,01.17,0.508
2016-07-04 03:14:00,2141E-3,5C000400,-0724,0828,12229,029.1,045.5,0.253,753.5,01.17,0.508
2016-07-04 03:15:00,2109E-3,5C000400,-0724,0827,12227,029.0,045.5,0.252,753.5,01.17,0.508
2016-07-04 03:16:00,2221E-3,5C000400,-0724,0827,12274,029.0,045.5,0.253,753.5,01.17,0.508
2016-07-04 03:17:00,2157E-3,5C000400,-0724,0827,12230,029.0,045.5,0.253,753.5,01.17,0.508
2016-07-04 03:18:00,2216E-3,5C000400,-0724,0828,12274,029.0,045.5,0.253,753.5,01.17,0.508
2016-07-04 03:19:00,2080E-3,5C000400,-0724,0827,12302,029.0,045.5,0.253,753.5,01.17,0.508
2016-07-04 03:20:00,2047E-3,5C000400,-0724,0827,12091,029.0,045.5,0.253,753.5,01.17,0.508
2016-07-04 03:21:00,1998E-3,5C000400,-0724,0827,12207,029.0,045.5,0.253,753.5,01.17,0.508
2016-07-04 03:22:00,2061E-3,5C000400,-0724,0828,12235,029.0,045.5,0.253,753.5,01.17,0.508
2016-07-04 03:23:00,2072E-3,5C000400,-0724,0827,12291,029.0,045.5,0.253,753.5,01.17,0.508
2016-07-04 03:24:00,2136E-3,5C000400,-0724,0827,12137,029.0,045.5,0.253,753.5,01.17,0.508
2016-07-04 03:25:00,2052E-3,5C000400,-0724,0827,12141,029.0,045.5,0.253,753.5,01.17,0.508
2016-07-04 03:26:00,2007E-3,5C000400,-0724,0828,12135,028.9,045.5,0.253,753.5,01.17,0.508
2016-07-04 03:27:00,2202E-3,5C000400,-0724,0827,12140,028.9,045.5,0.253,753.5,01.17,0.508
2016-07-04 03:28:00,2070E-3,5C000400,-0724,0827,12143,028.9,045.5,0.253,753.5,01.17,0.508
2016-07-04 03:29:00,2085E-3,5C000400,-0724,0828,12204,029.0,045.5,0.253,753.4,01.17,0.508
2016-07-04 03:30:00,2088E-3,5C000400,-0724,0828,12189,028.9,045.5,0.253,753.5,01.17,0.508
2016-07-04 03:31:00,2071E-3,5C000400,-0724,0827,12385,028.9,045.5,0.254,753.5,01.17,0.508
2016-07-04 03:32:00,2082E-3,5C000400,-0724,0828,12077,028.9,045.5,0.253,753.5,01.17,0.508
2016-07-04 03:33:00,2044E-3,5C000400,-0724,0827,12230,028.9,045.5,0.253,753.5,01.17,0.508
2016-07-04 03:34:00,2097E-3,5C000400,-0724,0827,12168,028.9,045.5,0.253,753.5,01.17,0.508
2016-07-04 03:35:00,2164E-3,5C000400,-0724,0828,12256,028.9,045.5,0.253,753.5,01.17,0.508
2016-07-04 03:36:00,2187E-3,5C000400,-0724,0828,12251,029.0,045.5,0.253,753.5,01.17,0.508
2016-07-04 03:37:00,2055E-3,5C000400,-0724,0827,12260,028.9,045.5,0.253,753.5,01.17,0.508
2016-07-04 03:38:00,2144E-3,5C000400,-0724,0827,12331,028.9,045.5,0.253,753.5,01.17,0.508
2016-07-04 03:39:00,2000E-3,5C000400,-0724,0827,12063,029.0,045.5,0.253,753.5,01.17,0.508
2016-07-04 03:40:00,2020E-3,5C000400,-0724,0828,12291,029.0,045.5,0.253,753.5,01.17,0.508
2016-07-04 03:41:00,2018E-3,5C000400,-0724,0828,12271,028.9,045.5,0.253,753.5,01.17,0.508
2016-07-04 03:42:00,2117E-3,5C000400,-0724,0828,12204,028.9,045.4,0.253,753.6,01.17,0.508
2016-07-04 03:43:00,2053E-3,5C000400,-0724,0827,12212,028.9,045.5,0.253,753.5,01.17,0.508
2016-07-04 03:44:00,2097E-3,5C000400,-0724,0827,12206,029.0,045.5,0.253,753.6,01.17,0.508
2016-07-04 03:45:00,2094E-3,5C000400,-0724,0828,12281,028.9,045.5,0.253,753.6,01.17,0.508
2016-07-04 03:46:00,2057E-3,5C000400,-0724,0828,12318,029.0,045.5,0.253,753.6,01.17,0.508
2016-07-04 03:47:00,2216E-3,5C000400,-0724,0828,12333,029.0,045.5,0.253,753.5,01.17,0.508
2016-07-04 03:48:00,2094E-3,5C000400,-0724,0828,12340,029.0,045.5,0.253,753.5,01.17,0.508
2016-07-04 03:49:00,2187E-3,5C000400,-0724,0827,12263,029.0,045.5,0.253,753.5,01.17,0.508
2016-07-04 03:50:00,1965E-3,5C000400,-0724,0827,12222,029.0,045.5,0.253,753.5,01.17,0.508
2016-07-04 03:51:00,2124E-3,5C000400,-0724,0827,12169,029.0,045.5,0.253,753.5,01.17,0.508
2016-07-04 03:52:00,2001E-3,5C000400,-0724,0828,12089,029.1,045.5,0.253,753.5,01.17,0.508
2016-07-04 03:53:00,2143E-3,5C000400,-0724,0828,12276,029.2,045.5,0.253,753.5,01.17,0.508
2016-07-04 03:54:00,2075E-3,5C000400,-0724,0827,12069,029.3,045.5,0.253,753.5,01.17,0.508
2016-07-04 03:55:00,2205E-3,5C000400,-0724,0827,12180,029.2,045.5,0.253,753.5,01.17,0.508
2016-07-04 03:56:00,2049E-3,5C000400,-0724,0827,12323,029.2,045.5,0.253,753.5,01.17,0.508
2016-07-04 03:57:00,2144E-3,5C000400,-0724,0827,12204,029.3,045.5,0.253,753.5,01.17,0.508
2016-07-04 03:58:00,1963E-3,5C000400,-0724,0828,12243,029.4,045.5,0.253,753.4,01.17,0.508
2016-07-04 03:59:00,2151E-3,5C000400,-0724,0828,12328,029.4,045.5,0.253,753.5,01.17,0.508
2016-07-04 04:00:00,2158E-3,5C000400,-0724,0827,12177,029.5,045.5,0.252,753.5,01.17,0.508
2016-07-04 04:01:00,2181E-3,5C000400,-0724,0828,12194,029.6,045.5,0.253,753.5,01.17,0.508
2016-07-04 04:02:00,1979E-3,5C000400,-0724,0828,12280,029.6,045.5,0.252,753.5,01.17,0.508
2016-07-04 04:03:00,2165E-3,5C000400,-0724,0828,12277,029.5,045.5,0.252,753.5,01.17,0.508
2016-07-04 04:04:00,2124E-3,5C000400,-0724,0827,12134,029.5,045.5,0.252,753.5,01.17,0.508
2016-07-04 04:05:00,2094E-3,5C000400,-0724,0828,12200,029.6,045.5,0.252,753.5,01.17,0.508
2016-07-04 04:06:00,2095E-3,5C000400,-0724,0829,12246,029.6,045.5,0.252,753.4,01.17,0.508
2016-07-04 04:07:00,2103E-3,5C000400,-0724,0827,12338,029.7,045.5,0.252,753.4,01.17,0.508
2016-07-04 04:08:00,2193E-3,5C000400,-0724,0828,12123,029.7,045.5,0.252,753.4,01.17,0.508
2016-07-04 04:09:00,2205E-3,5C000400,-0724,0828,12216,029.7,045.5,0.252,753.4,01.17,0.508
2016-07-04 04:10:00,2112E-3,5C000400,-0724,0828,12174,029.7,045.5,0.252,753.4,01.17,0.508
2016-07-04 04:11:00,2083E-3,5C000400,-0724,0827,12254,029.7,045.5,0.252,753.5,01.17,0.508
2016-07-04 04:12:00,2127E-3,5C000400,-0724,0828,12093,029.7,045.5,0.252,753.4,01.17,0.508
2016-07-04 04:13:00,2058E-3,5C000400,-0724,0828,12231,029.7,045.5,0.252,753.4,01.17,0.508
2016-07-04 04:14:00,1996E-3,5C000400,-0724,0828,12144,029.7,045.5,0.252,753.4,01.17,0.508
2016-07-04 04:15:00,2038E-3,5C000400,-0724,0828,12264,029.8,045.5,0.252,753.4,01.17,0.508
2016-07-04 04:16:00,2163E-3,5C000400,-0724,0829,12277,029.7,045.5,0.252,753.4,01.17,0.508
2016-07-04 04:17:00,2144E-3,5C000400,-0724,0828,12200,029.7,045.5,0.252,753.4,01.17,0.508
2016-07-04 04:18:00,2008E-3,5C000400,-0724,0827,12214,029.8,045.5,0.252,753.4,01.17,0.508
2016-07-04 04:19:00,2217E-3,5C000400,-0724,0828,12210,029.9,045.5,0.252,753.4,01.17,0.508
2016-07-04 04:20:00,2104E-3,5C000400,-0724,0827,11991,030.0,045.5,0.252,753.3,01.17,0.508
2016-07-04 04:21:00,2036E-3,5C000400,-0724,0828,12189,030.1,045.5,0.252,753.3,01.17,0.508
2016-07-04 04:22:00,2169E-3,5C000400,-0724,0828,12332,030.2,045.5,0.251,753.3,01.17,0.508
2016-07-04 04:23:00,2120E-3,5C000400,-0724,0828,12210,030.3,045.5,0.251,753.3,01.17,0.508